Location: Newark
(46.2358°N, 112.1211°W)
Time: 20:38:32
(UTC+00:00)

Envisat - Visible Passes

Search period start: 24 July 2021 00:00
Search period end: 03 August 2021 00:00
Orbit: 764 x 766 km, 98.1° (Epoch: 24 July)

Date Brightness Start Highest point End Pass type
(mag) Time Alt. Az. Time Alt. Az. Time Alt. Az.
24 Jul 5.9 11:26:00 10° ENE 11:28:26 13° E 11:30:52 10° ESE visible
27 Jul 6.3 11:16:02 10° ENE 11:16:47 10° E 11:17:32 10° E visible
01 Aug 5.8 11:28:07 10° NE 11:30:52 14° E 11:33:36 10° ESE visible
